This is the latest recevied weather packets stored in our database for station/object IZ1UQG-1. If no packets are shown the sender has not sent any weather packets the latest 10 day(s).
| Time | Temp. | Humidity | Pressure | Rain* | Wind** | Luminosity | Snow |
|---|---|---|---|---|---|---|---|
| 1778029134 | 13.89° C | 80% | 1011 hPa | 99.57 mm | - | - | - |
| 1778028834 | 13.89° C | 80% | 1011.1 hPa | 135.38 mm | - | - | - |
| 1778028534 | 13.89° C | 80% | 1011.1 hPa | 132.84 mm | - | - | - |
| 1778028234 | 13.89° C | 80% | 1011.2 hPa | 117.35 mm | - | - | - |
| 1778027934 | 13.89° C | 80% | 1011.1 hPa | 108.46 mm | - | - | - |
| 1778027634 | 13.89° C | 80% | 1011.2 hPa | 157.73 mm | - | - | - |
| 1778027334 | 13.89° C | 80% | 1011.2 hPa | 138.94 mm | - | - | - |
| 1778027034 | 13.89° C | 79% | 1011.4 hPa | 121.92 mm | - | - | - |
| 1778026734 | 13.89° C | 79% | 1011.4 hPa | 108.97 mm | - | - | - |
| 1778026434 | 13.89° C | 79% | 1011.3 hPa | 164.85 mm | - | - | - |
| 1778026134 | 13.89° C | 79% | 1011.4 hPa | 147.83 mm | - | - | - |
| 1778025834 | 13.89° C | 79% | 1011.4 hPa | 127.51 mm | - | - | - |
| 1778025534 | 13.89° C | 79% | 1011.4 hPa | 78.49 mm | - | - | - |
| 1778025234 | 13.89° C | 79% | 1011.5 hPa | 103.38 mm | - | - | - |
| 1778024934 | 13.89° C | 79% | 1011.7 hPa | 89.92 mm | - | - | - |
| 1778024634 | 13.89° C | 79% | 1011.8 hPa | 85.6 mm | - | - | - |
| 1778024334 | 13.89° C | 79% | 1011.7 hPa | 44.7 mm | - | - | - |
| 1778024034 | 13.89° C | 79% | 1011.7 hPa | 82.55 mm | - | - | - |
| 1778023734 | 13.89° C | 79% | 1011.6 hPa | 81.53 mm | - | - | - |
| 1778023434 | 13.89° C | 79% | 1011.7 hPa | 78.49 mm | - | - | - |
| 1778023134 | 13.89° C | 79% | 1011.9 hPa | 18.8 mm | - | - | - |
| 1778022834 | 13.89° C | 79% | 1012.1 hPa | 71.63 mm | - | - | - |
| 1778022534 | 13.89° C | 79% | 1012 hPa | 52.58 mm | - | - | - |
| 1778022234 | 13.89° C | 79% | 1012 hPa | 52.58 mm | - | - | - |
| 1778021934 | 13.89° C | 79% | 1012.1 hPa | 44.7 mm | - | - | - |
* Rain latest hour (hover to see other rain measurements)
** Current wind speed in m/s (hover to see current wind gust speed)